Location: Unspecified
(49.8670°N, 0.0000°E)
Time: 18:58:06
(UTC+00:00)

Vanguard 1 - Pass Details

Date: 27 June 2019
Orbit: 653 x 3830 km, 34.3° (Epoch: 15 July)

Event Time Altitude Azimuth Distance (km) Brightness Sun altitude
Rises 00:20:27 0° 217° (SW) 7,962 - -16.7°
Reaches altitude 10° 00:27:00 10° 208° (SSW) 6,872 - -16.6°
Exits shadow 00:31:34 17° 201° (SSW) 6,122 13.5 -16.5°
Maximum altitude 00:44:35 32° 157° (SSE) 4,470 12.9 -16.2°
Drops below altitude 10° 00:57:04 10° 102° (ESE) 4,910 13.6 -15.8°
Sets 01:00:43 0° 92° (E) 5,507 14.0 -15.7°
